Date,TemperatureHighF,TemperatureAvgF,TemperatureLowF,DewpointHighF,DewpointAvgF,DewpointLowF,HumidityHigh,HumidityAvg,HumidityLow,PressureMaxIn,PressureMinIn,WindSpeedMaxMPH,WindSpeedAvgMPH,GustSpeedMaxMPH,PrecipitationSumIn
2012-12-5,54.0,46.3,36.0,46.0,15.6,4.0,77,29,22,0.00,40.00,14,8,28,0.00
2012-12-6,38.0,30.5,22.0,17.0,5.2,-99.9,76,38,17,0.00,40.00,10,4,23,0.00
2012-12-7,46.0,35.9,22.0,41.0,28.2,17.0,98,75,50,0.00,40.00,3,1,9,0.00
2012-12-8,48.0,45.2,42.0,48.0,45.2,42.0,100,100,98,0.00,40.00,6,2,9,0.00
2012-12-9,49.0,42.3,38.0,45.0,35.5,15.0,100,80,29,0.00,40.00,10,2,17,0.00
2012-12-10,61.0,54.3,42.0,61.0,54.1,41.0,100,100,94,0.00,40.00,5,2,16,0.00
2012-12-11,57.0,47.2,34.0,57.0,38.5,17.0,100,74,33,0.00,40.00,8,3,17,0.00
2012-12-12,40.0,32.5,27.0,24.0,17.3,5.0,84,57,23,0.00,40.00,10,2,15,0.00
2012-12-13,43.0,32.8,25.0,26.0,19.7,7.0,90,65,23,0.00,40.00,6,1,10,0.00
2012-12-14,47.0,33.2,23.0,27.0,19.0,4.0,91,63,17,0.00,40.00,13,2,13,0.00
2012-12-15,41.0,33.3,27.0,27.0,17.5,5.0,91,59,22,0.00,40.00,8,2,16,0.00
2012-12-16,37.0,34.0,29.0,37.0,27.8,22.0,100,79,55,0.00,40.00,7,2,15,0.00
2012-12-17,47.0,43.7,38.0,47.0,43.6,38.0,100,100,98,0.00,40.00,8,3,17,0.00
2012-12-18,54.0,48.3,45.0,53.0,47.7,43.0,100,98,86,0.00,40.00,7,2,14,0.00
2012-12-19,46.0,42.4,39.0,43.0,29.8,20.0,100,64,38,0.00,40.00,22,8,36,0.00
2012-12-20,42.0,36.6,29.0,33.0,28.0,23.0,92,72,46,0.00,40.00,9,3,15,0.00
2012-12-21,54.0,44.8,36.0,54.0,40.7,29.0,100,86,66,0.00,40.00,22,6,43,0.00
2012-12-22,39.0,34.4,30.0,34.0,16.3,3.0,87,51,25,0.00,40.00,16,5,27,0.00
2012-12-23,38.0,30.6,26.0,24.0,12.6,3.0,83,49,24,0.00,40.00,7,2,21,0.00
2012-12-24,39.0,29.7,24.0,22.0,17.3,4.0,85,64,23,0.00,40.00,5,1,12,0.00
2012-12-25,34.0,31.7,27.0,32.0,28.6,17.0,97,88,68,0.00,40.00,7,4,14,0.00
2012-12-26,37.0,30.2,21.0,34.0,21.8,12.0,95,72,55,0.00,40.00,10,4,17,0.00
2012-12-27,50.0,40.5,31.0,50.0,40.0,30.0,100,98,92,0.00,40.00,17,8,30,0.00
2012-12-28,36.0,31.1,26.0,29.0,18.7,11.0,88,62,35,0.00,40.00,15,6,28,0.00
2012-12-29,36.0,30.3,24.0,36.0,26.9,21.0,99,88,65,0.00,40.00,8,2,16,0.00
2012-12-30,33.0,26.6,21.0,32.0,20.1,11.0,99,77,60,0.00,40.00,0,0,0,0.00
2012-12-31,33.0,25.3,17.0,26.0,17.7,10.0,86,73,60,0.00,40.00,7,2,15,0.00